Showing default

YAOGAN 26, 40362

Orbit data source: Space-Track

YAOGAN 26, 40362 is a payload satellite owned by PLA GAD (CN) in SSO that was launched on Sat, 27 Dec 2014 UTC via a CHANG ZHENG 4B launch vehicle from the Taiyaun Space Center, China (TSC). Payload-class satellites include a variety of spacecraft equipped with specific instruments for various scientific and technological missions. These include communications satellites like Starlink; space stations such as the ISS; scientific satellites like the Hubble; Earth observation satellites from companies like Planet Labs, Umbra, and HawkEye 360; GPS; miniature CubeSats for education and research; and military/defense satellites.

Loading next visibility...
Identifier
40362, 2014-088A
Orbit
SSO
Country
Flag of CNCN / PRC
Related business
Manufacturer
CAST
Mission
Operational Defense Imaging
Bus & Motor
JB-13?, Unknown motor
Mass
~3,000 kg wet, ~3,000 kg dry
Launch date (UTC)
2014-12-27 (11 years ago)
Launch vehicle
CHANG ZHENG 4B
Launch site
Taiyaun Space Center, China (TSC)
Object type
Payload
Rocket body
Debris
Shape & HBR
Box + 2 Pan, 4.0 m
Radar Cross Section
9.231 m², Large (>1 m²)

Expand to show TLE details & history
Last TLE update: 6 hours ago

TLE from 6 hours ago
0 YAOGAN 26
1 40362U 14088A   26062.18787683  .00033833  00000-0  77020-3 0  9999
2 40362  97.0660  65.2056 0007353  80.4025 279.8053 15.42858920621339
Epoch: 2026-03-03T04:30Z
TLE epoch observation values (Epoch: 2026-03-03T04:30:32.558Z)
Latitude
-0.00009°
Longitude
-163.40058°
Altitude
439.957 km
Speed
7.648 km/s
True Right ascension
04h 20m 49s
True Declination
0° 00' 00"
Sunlit
Object was in daylight at epoch
Visualization orbit readout
Latitude
Unknown
Longitude
Unknown
Altitude
Unknown
Speed
Unknown
Apparent Right ascension
Unknown
Apparent Declination
Unknown
Sunlit
N/A
Visualization observer readout
Local Sidereal Time
14:43:54
Azimuth
Unknown
Elevation
Unknown
Doppler factor
Unknown
Orbital elements
Apogee altitude
439.607 km
Perigee altitude
429.588 km
Semi-major axis
6,812.735 km
Eccentricity
0.00074
Inclination
97.066°
RAAN
65.2056°
Arg. of periapsis
80.4025°
True anomaly
279.72226°
Mean anomaly
279.8053°
Eccentric anomaly
279.76378°
Mean motion
3.85977 °/min
Orbital period
93.27 mins
BSTAR
0.0007702
Loading maneuver chart data...
Computing Atmospheric mass density...
Loading historical data...
Loading historical data...
Loading historical data...
Loading historical data...
Loading historical data...
Loading historical data...
Loading historical data...

Documentation

Showing up to 5 results
|